[[{"header":{"parameterUnit":"m.s-1","parameterCategory":1,"la1":30.2991,"la2":30.254,"lo1":-89.0895,"lo2":-89.0444,"dy":0.0017,"dx":0.0017,"nx":28,"ny":28,"refTime":"2025-01-06T09:00:00:Z","depth":0,"parameterNumber":2,"parameterNumberName":"U-component_of_WINDS"},"data":[0,0,0,0,0,0,0,0,0,0,0,0,0,0,0,0,0,0,0,0,0,0,0,0,0,0,0,0,0,0,0,0,0,0,0,0,0,0,0,0,0,0,0,0,0,0,0,0,0,0,0,0,0,0,0,0,0,0,-0.9642,-0.9643,0,-0.9734,-0.9736,-0.9737,-0.9719,-0.9717,-0.9716,-0.9714,-0.981,-0.9814,-0.9818,0,0,0,0,0,0,0,0,0,0,0,0,0,-0.9448,-0.9452,-0.9642,-0.9643,-0.9644,-0.9734,-0.9736,-0.9737,-0.9719,-0.9717,-0.9715,-0.9713,-0.9809,-0.9814,-0.9818,0,0,0,0,0,0,0,0,0,0,0,0,0,-0.9536,-0.9453,-0.9641,-0.9646,-0.9647,-0.9734,-0.9736,-0.9737,-0.972,-0.9717,-0.9715,-0.9712,-0.9807,-0.9813,-0.9819,-0.9907,0,0,-0.9838,-0.9841,0,0,0,0,0,0,0,0,-0.9531,-0.9543,-0.9644,-0.9646,-0.9648,-0.9713,-0.9703,-0.9794,-0.972,-0.9692,-0.9714,-0.9711,-0.978,-0.9788,-0.9811,-0.9912,-0.9916,-0.9839,-0.9842,-0.9845,-0.9847,0,0,0,0,0,0,0,-0.9525,-0.9539,-0.9678,-0.9646,-0.9648,-0.9643,-0.9653,-0.972,-0.9749,-0.9694,-0.9693,-0.9705,-0.978,-0.9805,-0.9813,-0.9917,-0.9838,-0.9844,-0.9848,-0.985,-1.0093,-1.0096,0,0,0,0,0,0,-0.9517,-0.9534,-0.9675,-0.9681,-0.9582,-0.9649,-0.9659,-0.9694,-0.9748,-0.9754,-0.9707,-0.9703,-0.9796,-0.9806,-0.9816,-0.9923,-0.9845,-0.9851,-0.9854,-1.0091,-1.0094,-1.0097,0,0,0,0,0,0,-0.9513,-0.953,-0.9672,-0.9607,-0.9625,-0.9655,-0.9694,-0.9697,-0.9722,-0.9757,-0.9762,-0.9727,-0.9794,-0.9808,-0.9884,-0.9926,-0.9853,-0.9859,-1.0087,-1.0092,-1.0096,-1.0136,0,0,0,0,0,0,-0.9508,-0.9529,-0.9563,-0.9608,-0.9629,-0.9739,-0.9696,-0.9701,-0.9733,-0.973,-0.9778,-0.9783,-0.9793,-0.9875,-0.9891,-0.9933,-0.9864,-1.0084,-1.0089,-1.0094,-1.0131,-1.0141,-1.015,0,0,0,0,0,-0.9501,-0.9571,-0.9565,-0.9582,-0.9672,-0.9741,-0.9753,-0.9763,-0.9736,-0.9771,-0.9793,-0.9782,-0.9918,-0.9883,-0.99,-0.9945,-1.0081,-1.0088,-1.0094,-1.0127,-1.0139,-1.0149,0,0,0,0,0,0,-0.9532,-0.9578,-0.9571,-0.9658,-0.9696,-0.9738,-0.9782,-0.9775,-0.9822,-0.9817,-0.9827,-0.9838,-0.9916,-0.9938,-0.9898,-1.0032,-0.9996,-1.0006,-1.0015,-1.0027,-1.0036,-1.003,-0.9869,0,0,0,0,0,-0.9548,-0.96,-0.9638,-0.9711,-0.973,-0.9753,-0.9783,-0.9787,-0.9827,-0.9843,-0.9871,-0.991,-0.9961,-0.9995,-1.0045,-1.0133,-1.0143,-1.0172,-1.0181,-1.0189,-1.0198,-1.0245,-1.0258,-1.0118,-1.0117,-1.0117,0,0,-0.9584,-0.9615,-0.9648,-0.9718,-0.9748,-0.9801,-0.9767,-0.9825,-0.9865,-0.9852,-0.9926,-0.9948,-0.9991,-1.0074,-1.0112,-1.0095,-1.0238,-1.0197,-1.0202,-1.0207,-1.0253,-1.0266,-1.0278,-1.0122,-1.0121,-1.012,0,0,-0.9676,-0.9705,-0.9769,-0.9799,-0.9843,-0.9857,-0.9873,-0.9916,-0.9929,-1.0003,-0.9994,-1.0041,-1.013,-1.0161,-1.0189,-1.029,-1.0281,-1.0305,-1.0354,-1.04,-1.0411,-1.0421,-1.0457,-1.0469,-1.0314,-1.0314,-1.0314,0,-0.9715,-0.9795,-0.9802,-0.9862,-0.9892,-0.9881,-0.9946,-0.9974,-1.0033,-1.0054,-1.0034,-1.0144,-1.0173,-1.0262,-1.0286,-1.0309,-1.0326,-1.0301,-1.0409,-1.0419,-1.0428,-1.0462,-1.0476,-1.0316,-1.0316,-1.0316,-1.0316,0,-0.984,-0.9896,-0.9942,-0.9998,-1.0034,-1.0095,-1.0111,-1.0146,-1.0146,-1.0162,-1.0237,-1.027,-1.0326,-1.0347,-1.0348,-1.0436,-1.0424,-1.0406,-1.037,-1.0444,-1.0476,-1.0489,-1.032,-1.0319,-1.0319,-1.0318,0,0,-0.9957,-1.0014,-1.0031,-1.0056,-1.0103,-1.0146,-1.0206,-1.026,-1.0289,-1.0329,-1.038,-1.0454,-1.0436,-1.0468,-1.0472,-1.0512,-1.0589,-1.0489,-1.049,-1.0506,-1.0687,-1.0701,-1.0716,-1.0582,-1.0585,-1.0587,-1.0683,0,-1.0054,-1.016,-1.0167,-1.0263,-1.0314,-1.0303,-1.0355,-1.0389,-1.0405,-1.045,-1.0467,-1.0519,-1.0493,-1.0512,-1.0551,-1.0571,-1.0625,-1.0564,-1.0629,-1.0632,-1.062,-1.0733,-1.0749,-1.0838,-1.0696,-1.0698,-1.07,0,-1.0182,-1.0225,-1.0326,-1.0364,-1.0385,-1.0432,-1.0481,-1.0524,-1.0562,-1.057,-1.0604,-1.0601,-1.0662,-1.0622,-1.0706,-1.0664,-1.0691,-1.0704,-1.0708,-1.0715,-1.0671,-1.0744,-1.0867,-1.0881,-1.072,-1.0718,-1.0717,0,-1.0257,-1.034,-1.0411,-1.0432,-1.0478,-1.0511,-1.0532,-1.0567,-1.0598,-1.064,-1.066,-1.0709,-1.0736,-1.0773,-1.0783,-1.0754,-1.0866,-1.0828,-1.0875,-1.0875,-1.0901,-1.0899,-1.103,-1.0916,-1.0916,-1.0916,-1.0916,0,-1.0366,-1.0428,-1.0445,-1.0489,-1.0557,-1.0563,-1.0631,-1.065,-1.0681,-1.0727,-1.072,-1.0764,-1.0774,-1.082,-1.0828,-1.0896,-1.0908,-1.0916,-1.0918,-1.0917,-1.0916,-1.0936,-1.093,-1.092,-1.0919,-1.0918,-1.0917,0,-1.0462,-1.0476,-1.0552,-1.0589,-1.0599,-1.0649,-1.068,-1.0721,-1.0734,-1.0793,-1.0807,-1.0829,-1.0882,-1.0895,-1.0959,-1.0964,-1.1044,-1.1039,-1.1031,-1.1031,-1.1078,-1.1073,-1.1227,-1.1247,-1.1119,-1.112,-1.1121,0,-1.0531,-1.0578,-1.0619,-1.065,-1.0672,-1.0721,-1.0752,-1.0759,-1.0791,-1.0836,-1.0872,-1.0924,-1.0966,-1.1051,-1.1072,-1.112,-1.1117,-1.1167,-1.1124,-1.1121,-1.1118,-1.1115,-1.1119,-1.1176,-1.1177,-1.1178,-1.1179,0,-1.0651,-1.0655,-1.07,-1.0747,-1.0784,-1.0821,-1.0857,-1.0882,-1.0894,-1.0931,-1.0984,-1.1017,-1.108,-1.1132,-1.1179,-1.12,-1.1192,-1.1192,-1.1206,-1.1206,-1.12,-1.1204,-1.1054,-1.1189,-1.1188,-1.1187,-1.1187,-1.1186,-1.0737,-1.0778,-1.0812,-1.0862,-1.0889,-1.0922,-1.0962,-1.098,-1.1025,-1.1077,-1.1078,-1.1136,-1.117,-1.1233,-1.1257,-1.1302,-1.1286,-1.1306,-1.1311,-1.1316,-1.132,-1.1191,-1.131,-1.131,-1.131,-1.1309,-1.1309,0,-1.0857,-1.0878,-1.0923,-1.0973,-1.1012,-1.0999,-1.1037,-1.107,-1.1121,-1.1154,-1.1194,-1.1255,-1.1304,-1.1328,-1.1376,-1.1407,-1.1404,-1.142,-1.1418,-1.1423,-1.1331,-1.1315,-1.1421,-1.1421,-1.1421,-1.1421,-1.1421,-1.1421,-1.0924,-1.0992,-1.1,-1.1081,-1.1101,-1.1158,-1.1181,-1.121,-1.1236,-1.1304,-1.1344,-1.1359,-1.1388,-1.1438,-1.1481,-1.1487,-1.1505,-1.1523,-1.1526,-1.1441,-1.1429,-1.1419,-1.1403,-1.1526,-1.1527,-1.1614,-1.1615,-1.1616]},{"header":{"parameterUnit":"m.s-1","parameterCategory":1,"la1":30.2991,"la2":30.254,"lo1":-89.0895,"lo2":-89.0444,"dy":0.0017,"dx":0.0017,"nx":28,"ny":28,"refTime":"2025-01-06T09:00:00:Z","depth":0,"parameterNumber":3,"parameterNumberName":"V-component_of_WINDS"},"data":[0,0,0,0,0,0,0,0,0,0,0,0,0,0,0,0,0,0,0,0,0,0,0,0,0,0,0,0,0,0,0,0,0,0,0,0,0,0,0,0,0,0,0,0,0,0,0,0,0,0,0,0,0,0,0,0,0,0,-5.9675,-5.9676,0,-5.9807,-5.9808,-5.9809,-5.9738,-5.9735,-5.9731,-5.9728,-5.9858,-5.9865,-5.9872,0,0,0,0,0,0,0,0,0,0,0,0,0,-5.9356,-5.9362,-5.9675,-5.9676,-5.9678,-5.9806,-5.9808,-5.981,-5.9739,-5.9734,-5.973,-5.9726,-5.9856,-5.9864,-5.9872,0,0,0,0,0,0,0,0,0,0,0,0,0,-5.9492,-5.9364,-5.9674,-5.9658,-5.9658,-5.9806,-5.9808,-5.981,-5.974,-5.9734,-5.9729,-5.9724,-5.9853,-5.9863,-5.9873,-6.0044,0,0,-5.9905,-5.9909,0,0,0,0,0,0,0,0,-5.9484,-5.9503,-5.9659,-5.966,-5.966,-5.9751,-5.9743,-5.9888,-5.9741,-5.9709,-5.9728,-5.9721,-5.9826,-5.9839,-5.9875,-6.005,-6.0055,-5.9905,-5.9912,-5.9916,-5.9919,0,0,0,0,0,0,0,-5.9475,-5.9497,-5.9727,-5.9661,-5.9662,-5.9642,-5.9656,-5.9771,-5.9796,-5.9711,-5.9706,-5.9723,-5.9826,-5.9865,-5.9877,-6.0057,-5.9905,-5.9914,-5.9921,-5.9925,-6.0375,-6.038,0,0,0,0,0,0,-5.9467,-5.949,-5.9722,-5.9731,-5.9557,-5.9652,-5.9667,-5.9727,-5.9794,-5.98,-5.9727,-5.9719,-5.985,-5.9866,-5.9882,-6.0084,-5.9916,-5.9926,-5.9931,-6.0369,-6.0376,-6.0382,0,0,0,0,0,0,-5.946,-5.9488,-5.9717,-5.9609,-5.9637,-5.9664,-5.9731,-5.9732,-5.9772,-5.9807,-5.981,-5.9764,-5.9847,-5.9867,-6.0003,-6.0087,-5.993,-5.9939,-6.0362,-6.0371,-6.0379,-6.049,0,0,0,0,0,0,-5.9451,-5.9486,-5.9553,-5.9611,-5.9643,-5.9839,-5.9736,-5.9739,-5.979,-5.978,-5.9842,-5.9847,-5.9844,-5.9989,-6.0014,-6.0098,-5.9947,-6.0354,-6.0366,-6.0376,-6.0479,-6.0501,-6.0521,0,0,0,0,0,-5.944,-5.9579,-5.9557,-5.9585,-5.9727,-5.9844,-5.9862,-5.9857,-5.9797,-5.9863,-5.9885,-5.9845,-6.0074,-6.0003,-6.0031,-6.012,-6.0349,-6.0363,-6.0375,-6.047,-6.0497,-6.052,0,0,0,0,0,0,-5.9529,-5.9586,-5.9563,-5.9724,-5.978,-5.9832,-5.9915,-5.9887,-5.996,-5.9948,-5.9937,-5.9952,-6.0093,-6.012,-6.004,-6.0286,-6.0202,-6.0221,-6.0264,-6.029,-6.0311,-6.0301,-5.9956,0,0,0,0,0,-5.9568,-5.966,-5.9704,-5.9842,-5.9871,-5.9889,-5.994,-5.9931,-5.9988,-6.0011,-6.0043,-6.0098,-6.0182,-6.0237,-6.0317,-6.0482,-6.0493,-6.0557,-6.0577,-6.0594,-6.0611,-6.0698,-6.0726,-6.0425,-6.0425,-6.0425,0,0,-5.9648,-5.9691,-5.9749,-5.9861,-5.9903,-5.9997,-5.9909,-6.0012,-6.0081,-6.0026,-6.0156,-6.0182,-6.0242,-6.0393,-6.0461,-6.0419,-6.0696,-6.0611,-6.0624,-6.0632,-6.0714,-6.0742,-6.0768,-6.0434,-6.0433,-6.0431,0,0,-5.9842,-5.9885,-6.0003,-6.0047,-6.0112,-6.0122,-6.0151,-6.0207,-6.0222,-6.0353,-6.0313,-6.0393,-6.0539,-6.0583,-6.0624,-6.0832,-6.0797,-6.0858,-6.0967,-6.1052,-6.1075,-6.1096,-6.1168,-6.1195,-6.0874,-6.0875,-6.0875,0,-5.9934,-6.0075,-6.0068,-6.0174,-6.0223,-6.0178,-6.0297,-6.0339,-6.0426,-6.046,-6.0413,-6.0593,-6.0631,-6.079,-6.0841,-6.0876,-6.0906,-6.0851,-6.1073,-6.1094,-6.1113,-6.1182,-6.1209,-6.0882,-6.0881,-6.088,-6.0879,0,-6.0183,-6.0281,-6.0369,-6.0455,-6.0513,-6.0626,-6.0633,-6.0693,-6.0679,-6.0693,-6.0825,-6.0869,-6.0955,-6.0992,-6.0979,-6.1149,-6.1121,-6.1074,-6.0988,-6.1149,-6.1213,-6.124,-6.0892,-6.0889,-6.0887,-6.0885,0,0,-6.0438,-6.0517,-6.055,-6.0587,-6.0654,-6.0729,-6.0837,-6.0923,-6.0973,-6.1034,-6.1123,-6.1246,-6.1202,-6.1249,-6.124,-6.1315,-6.1474,-6.1257,-6.1259,-6.1295,-6.1661,-6.1696,-6.1727,-6.1451,-6.1456,-6.146,-6.1656,0,-6.0636,-6.0827,-6.0823,-6.0999,-6.1088,-6.1045,-6.1139,-6.1189,-6.1205,-6.1281,-6.1297,-6.1384,-6.132,-6.1348,-6.142,-6.144,-6.1547,-6.1425,-6.1532,-6.1536,-6.1518,-6.1761,-6.1799,-6.1982,-6.1681,-6.1685,-6.1688,0,-6.0892,-6.0962,-6.1148,-6.12,-6.1237,-6.1322,-6.1398,-6.1472,-6.1527,-6.1533,-6.1585,-6.1563,-6.167,-6.1582,-6.1728,-6.1645,-6.1688,-6.1704,-6.1711,-6.172,-6.1622,-6.1776,-6.204,-6.2067,-6.1728,-6.1725,-6.1722,0,-6.1058,-6.1198,-6.1327,-6.1361,-6.1425,-6.1485,-6.1514,-6.1564,-6.1614,-6.168,-6.1712,-6.179,-6.1832,-6.1891,-6.189,-6.1826,-6.2037,-6.195,-6.2043,-6.2043,-6.209,-6.2087,-6.2364,-6.2119,-6.2118,-6.2118,-6.2117,0,-6.1279,-6.1394,-6.1402,-6.1482,-6.1608,-6.1601,-6.1725,-6.1748,-6.1792,-6.1873,-6.184,-6.1916,-6.1911,-6.1987,-6.1987,-6.2106,-6.2126,-6.2132,-6.213,-6.2135,-6.2134,-6.2163,-6.2149,-6.2125,-6.2123,-6.2122,-6.2121,0,-6.1486,-6.1496,-6.1634,-6.1683,-6.1697,-6.1788,-6.1829,-6.1903,-6.1915,-6.2018,-6.2041,-6.2059,-6.2147,-6.2152,-6.2254,-6.2253,-6.2398,-6.2383,-6.238,-6.2377,-6.247,-6.2461,-6.2775,-6.2815,-6.2545,-6.2547,-6.2549,0,-6.1626,-6.1714,-6.1772,-6.1824,-6.1857,-6.1942,-6.1993,-6.1988,-6.2042,-6.211,-6.2175,-6.226,-6.2328,-6.247,-6.2491,-6.2567,-6.2553,-6.2657,-6.2564,-6.2565,-6.2553,-6.2548,-6.2555,-6.2676,-6.2679,-6.2681,-6.2683,0,-6.1873,-6.1873,-6.1949,-6.2027,-6.209,-6.215,-6.2207,-6.2251,-6.2252,-6.2314,-6.2404,-6.2457,-6.256,-6.2644,-6.2718,-6.2745,-6.2714,-6.2712,-6.2738,-6.2743,-6.2737,-6.274,-6.2429,-6.2705,-6.2703,-6.2701,-6.27,-6.2699,-6.205,-6.2125,-6.2177,-6.2262,-6.2304,-6.2357,-6.2428,-6.2448,-6.2524,-6.2608,-6.26,-6.2699,-6.2748,-6.2845,-6.2878,-6.2954,-6.2918,-6.2955,-6.2964,-6.2974,-6.2983,-6.2726,-6.2967,-6.2967,-6.2966,-6.2966,-6.2965,0,-6.2294,-6.2325,-6.2403,-6.2483,-6.255,-6.2515,-6.2575,-6.2632,-6.272,-6.277,-6.2837,-6.2939,-6.3019,-6.3046,-6.3124,-6.3179,-6.3166,-6.3199,-6.3195,-6.3201,-6.3011,-6.2981,-6.3208,-6.3208,-6.3208,-6.3208,-6.3208,-6.3208,-6.2429,-6.2553,-6.2559,-6.2702,-6.2732,-6.283,-6.2867,-6.2914,-6.2953,-6.3069,-6.3136,-6.3153,-6.3193,-6.3273,-6.3344,-6.3349,-6.3379,-6.3418,-6.3417,-6.3239,-6.3215,-6.3192,-6.3163,-6.3425,-6.3425,-6.3601,-6.3602,-6.3604]}]]